Home > Weather > Charleston > Past weeks

Flag for U.S.A. Weather for the Past 2 Weeks in Charleston, South Carolina, U.S.A.

Now
44 °F

Clear.


Feels Like: 41 °F
Forecast: 36 / 51 °F
Wind: 6 mph from North

Location: Charleston Air Force Base Reporting Station

Current Time: Feb 5, 2016 at 7:39:05 PM

Latest Report: Feb 5, 2016 at 6:56 PM


Visibility: 10 mi

Pressure: 30.35 "Hg

Humidity: 49%

Dew point: 26 °F

Location of CharlestonLocation

Historic Weather in Charleston — Graph

°F

Charleston Temperature Yesterday

Maximum temperature yesterday: 68 °F (at 3:02 AM)
Minimum temperature yesterday: 53 °F (at 5:56 PM)
Average temperature yesterday: 60 °F

High & Low Weather Summary for the Past Weeks

 TemperatureHumidityPressure
High77 °F (Feb 1, 2:56 PM)100% (Jan 26, 9:56 AM)30.35 "Hg (Jan 26, 9:56 AM)
Low29 °F (Jan 24, 6:56 AM)28% (Jan 29, 3:56 PM)29.54 "Hg (Jan 22, 7:56 PM)
Average52 °F75%30.04 "Hg
* Reported Jan 21 5:56 PM — Feb 5 5:56 PM, Charleston, Weather by CustomWeather, © 2016

Note: Actual official high and low records may vary slightly from our data, if they occured in-between our weather recording intervals... More about our weather records

Advertising

Charleston Weather History for the Previous 24 Hours

 ConditionsComfort  
Time TempWeatherWind HumidityBarometerVisibility
5:56 PM
Fri, Feb 5
48 °FClear.9 mph37%30.32 "Hg10 mi
4:56 PM51 °FSunny.15 mph32%30.31 "Hg10 mi
3:56 PM52 °FSunny.13 mph34%30.30 "Hg10 mi
2:56 PM53 °FPassing clouds.12 mph37%30.29 "Hg10 mi
1:56 PM53 °FPassing clouds.13 mph35%30.29 "Hg10 mi
12:56 PM53 °FPassing clouds.13 mph38%30.30 "Hg10 mi
11:56 AM51 °FPassing clouds.16 mph42%30.30 "Hg10 mi
10:56 AM50 °FPassing clouds.20 mph50%30.31 "Hg10 mi
9:56 AM50 °FPassing clouds.20 mph48%30.30 "Hg10 mi
8:56 AM48 °FSunny.18 mph52%30.27 "Hg10 mi
7:56 AM46 °FSunny.16 mph58%30.24 "Hg10 mi
6:56 AM46 °FPassing clouds.18 mph56%30.19 "Hg10 mi
5:56 AM47 °FPassing clouds.10 mph69%30.14 "Hg10 mi
4:56 AM46 °FPartly cloudy.14 mph66%30.09 "Hg10 mi
3:56 AM46 °FPassing clouds.13 mph66%30.05 "Hg10 mi
2:56 AM47 °FPassing clouds.9 mph69%30.02 "Hg10 mi
1:56 AM49 °FPassing clouds.12 mph71%30.00 "Hg10 mi
12:56 AM52 °FPassing clouds.16 mph72%29.97 "Hg10 mi
11:56 PM
Thu, Feb 4
53 °FOvercast.10 mph89%29.98 "Hg10 mi
10:56 PM53 °FOvercast.8 mph93%29.98 "Hg10 mi
9:56 PM53 °FLow clouds.7 mph89%30.01 "Hg10 mi
8:56 PM53 °FLight rain. Low clouds.8 mph89%30.00 "Hg10 mi
7:56 PM53 °FLight rain. Low clouds.7 mph89%29.99 "Hg10 mi
Weather by CustomWeather, © 2016

See weather overviewHow to use our weather pages